owner,sensor,date,latitude,longitude,air_temperature,qcFlag 
TCOON,ioos:station:TCOON:013:1,2014-12-01T02:12:00Z,27.4847,-97.3181,21.0,1111122 
TCOON,ioos:station:TCOON:013:1,2014-12-01T03:12:00Z,27.4847,-97.3181,21.2,1111122 
TCOON,ioos:station:TCOON:013:1,2014-12-01T04:12:00Z,27.4847,-97.3181,21.1,1111122 
TCOON,ioos:station:TCOON:013:1,2014-12-01T05:12:00Z,27.4847,-97.3181,20.5,1111122 
TCOON,ioos:station:TCOON:013:1,2014-12-01T06:12:00Z,27.4847,-97.3181,20.0,1111122 
TCOON,ioos:station:TCOON:013:1,2014-12-01T07:12:00Z,27.4847,-97.3181,19.8,1111122 
TCOON,ioos:station:TCOON:013:1,2014-12-01T08:12:00Z,27.4847,-97.3181,19.5,1111122 
TCOON,ioos:station:TCOON:013:1,2014-12-01T09:12:00Z,27.4847,-97.3181,19.1,1111122 
TCOON,ioos:station:TCOON:013:1,2014-12-01T10:12:00Z,27.4847,-97.3181,19.2,1111122 
TCOON,ioos:station:TCOON:013:1,2014-12-01T11:12:00Z,27.4847,-97.3181,19.1,1111122 
TCOON,ioos:station:TCOON:013:1,2014-12-01T12:12:00Z,27.4847,-97.3181,19.5,1111122 
TCOON,ioos:station:TCOON:013:1,2014-12-01T13:12:00Z,27.4847,-97.3181,19.7,1111122 
TCOON,ioos:station:TCOON:013:1,2014-12-01T18:54:00Z,27.4847,-97.3181,23.3,1111122 
TCOON,ioos:station:TCOON:013:1,2014-12-01T19:12:00Z,27.4847,-97.3181,23.6,1111122 
TCOON,ioos:station:TCOON:013:1,2014-12-01T20:12:00Z,27.4847,-97.3181,23.5,1111122 
TCOON,ioos:station:TCOON:013:1,2014-12-01T21:12:00Z,27.4847,-97.3181,23.4,1111122 
TCOON,ioos:station:TCOON:013:1,2014-12-01T22:12:00Z,27.4847,-97.3181,23.0,1111122 
TCOON,ioos:station:TCOON:013:1,2014-12-01T23:12:00Z,27.4847,-97.3181,17.4,1111122 
TCOON,ioos:station:TCOON:013:1,2014-12-02T00:12:00Z,27.4847,-97.3181,15.0,1111122 
TCOON,ioos:station:TCOON:013:1,2014-12-02T01:12:00Z,27.4847,-97.3181,13.9,1111122 
TCOON,ioos:station:TCOON:013:1,2014-12-02T02:12:00Z,27.4847,-97.3181,12.8,1111122 
TCOON,ioos:station:TCOON:013:1,2014-12-02T03:12:00Z,27.4847,-97.3181,12.2,1111122 
TCOON,ioos:station:TCOON:013:1,2014-12-02T04:12:00Z,27.4847,-97.3181,11.7,1111122 
TCOON,ioos:station:TCOON:013:1,2014-12-02T05:12:00Z,27.4847,-97.3181,11.2,1111122 
TCOON,ioos:station:TCOON:013:1,2014-12-02T06:42:00Z,27.4847,-97.3181,10.3,1111122 
TCOON,ioos:station:TCOON:013:1,2014-12-02T07:12:00Z,27.4847,-97.3181,10.6,1111122 
TCOON,ioos:station:TCOON:013:1,2014-12-02T08:12:00Z,27.4847,-97.3181,9.9,1111122 
TCOON,ioos:station:TCOON:013:1,2014-12-02T09:12:00Z,27.4847,-97.3181,9.9,1111122 
TCOON,ioos:station:TCOON:013:1,2014-12-02T10:12:00Z,27.4847,-97.3181,9.4,1111122 
TCOON,ioos:station:TCOON:013:1,2014-12-02T11:12:00Z,27.4847,-97.3181,9.9,1111122 
TCOON,ioos:station:TCOON:013:1,2014-12-02T12:18:00Z,27.4847,-97.3181,9.9,1111122 
TCOON,ioos:station:TCOON:013:1,2014-12-02T13:12:00Z,27.4847,-97.3181,10.2,1111122 
TCOON,ioos:station:TCOON:013:1,2014-12-02T14:12:00Z,27.4847,-97.3181,10.2,1111122 
TCOON,ioos:station:TCOON:013:1,2014-12-02T15:12:00Z,27.4847,-97.3181,10.3,1111122 
TCOON,ioos:station:TCOON:013:1,2014-12-02T16:12:00Z,27.4847,-97.3181,10.5,1111122 
TCOON,ioos:station:TCOON:013:1,2014-12-02T17:12:00Z,27.4847,-97.3181,10.5,1111122 
TCOON,ioos:station:TCOON:013:1,2014-12-02T18:12:00Z,27.4847,-97.3181,10.4,1111122 
TCOON,ioos:station:TCOON:013:1,2014-12-02T19:12:00Z,27.4847,-97.3181,11.0,1111122 
TCOON,ioos:station:TCOON:013:1,2014-12-02T20:12:00Z,27.4847,-97.3181,11.3,1111122 
TCOON,ioos:station:TCOON:013:1,2014-12-02T21:12:00Z,27.4847,-97.3181,11.7,1111122 
TCOON,ioos:station:TCOON:013:1,2014-12-02T22:18:00Z,27.4847,-97.3181,12.4,1111122 
TCOON,ioos:station:TCOON:013:1,2014-12-02T23:12:00Z,27.4847,-97.3181,12.5,1111122 
TCOON,ioos:station:TCOON:013:1,2014-12-03T00:12:00Z,27.4847,-97.3181,13.1,1111122 
TCOON,ioos:station:TCOON:013:1,2014-12-03T01:18:00Z,27.4847,-97.3181,13.4,1111122 
TCOON,ioos:station:TCOON:013:1,2014-12-03T02:12:00Z,27.4847,-97.3181,13.7,1111122 
TCOON,ioos:station:TCOON:013:1,2014-12-03T03:12:00Z,27.4847,-97.3181,13.7,1111122 
TCOON,ioos:station:TCOON:013:1,2014-12-03T04:12:00Z,27.4847,-97.3181,14.5,1111122 
TCOON,ioos:station:TCOON:013:1,2014-12-03T05:12:00Z,27.4847,-97.3181,14.8,1111122 
TCOON,ioos:station:TCOON:013:1,2014-12-03T06:12:00Z,27.4847,-97.3181,14.5,1111122 
TCOON,ioos:station:TCOON:013:1,2014-12-03T07:12:00Z,27.4847,-97.3181,14.2,1111122 
TCOON,ioos:station:TCOON:013:1,2014-12-03T08:12:00Z,27.4847,-97.3181,13.8,1111122 
TCOON,ioos:station:TCOON:013:1,2014-12-03T09:12:00Z,27.4847,-97.3181,13.7,1111122 
TCOON,ioos:station:TCOON:013:1,2014-12-03T10:12:00Z,27.4847,-97.3181,13.6,1111122 
TCOON,ioos:station:TCOON:013:1,2014-12-03T11:12:00Z,27.4847,-97.3181,14.1,1111122 
TCOON,ioos:station:TCOON:013:1,2014-12-03T12:12:00Z,27.4847,-97.3181,14.6,1111122 
TCOON,ioos:station:TCOON:013:1,2014-12-03T13:12:00Z,27.4847,-97.3181,14.9,1111122 
TCOON,ioos:station:TCOON:013:1,2014-12-03T14:12:00Z,27.4847,-97.3181,16.4,1111122 
TCOON,ioos:station:TCOON:013:1,2014-12-03T15:24:00Z,27.4847,-97.3181,19.0,1111122 
TCOON,ioos:station:TCOON:013:1,2014-12-03T16:12:00Z,27.4847,-97.3181,19.6,1111122 
TCOON,ioos:station:TCOON:013:1,2014-12-03T17:12:00Z,27.4847,-97.3181,19.7,1111122 
TCOON,ioos:station:TCOON:013:1,2014-12-03T18:12:00Z,27.4847,-97.3181,20.0,1111122 
TCOON,ioos:station:TCOON:013:1,2014-12-03T19:12:00Z,27.4847,-97.3181,19.8,1111122 
TCOON,ioos:station:TCOON:013:1,2014-12-03T20:12:00Z,27.4847,-97.3181,20.0,1111122 
TCOON,ioos:station:TCOON:013:1,2014-12-03T21:12:00Z,27.4847,-97.3181,20.2,1111122 
TCOON,ioos:station:TCOON:013:1,2014-12-03T22:24:00Z,27.4847,-97.3181,20.1,1111122 
TCOON,ioos:station:TCOON:013:1,2014-12-03T23:12:00Z,27.4847,-97.3181,19.9,1111122 
TCOON,ioos:station:TCOON:013:1,2014-12-04T00:18:00Z,27.4847,-97.3181,19.5,1111122 
TCOON,ioos:station:TCOON:013:1,2014-12-04T01:18:00Z,27.4847,-97.3181,19.3,1111122 
TCOON,ioos:station:TCOON:013:1,2014-12-04T02:12:00Z,27.4847,-97.3181,19.9,1111122 
TCOON,ioos:station:TCOON:013:1,2014-12-04T03:12:00Z,27.4847,-97.3181,20.3,1111122 
TCOON,ioos:station:TCOON:013:1,2014-12-04T04:12:00Z,27.4847,-97.3181,20.1,1111122 
TCOON,ioos:station:TCOON:013:1,2014-12-04T05:12:00Z,27.4847,-97.3181,20.0,1111122 
TCOON,ioos:station:TCOON:013:1,2014-12-04T06:12:00Z,27.4847,-97.3181,19.7,1111122 
TCOON,ioos:station:TCOON:013:1,2014-12-04T07:12:00Z,27.4847,-97.3181,19.7,1111122 
TCOON,ioos:station:TCOON:013:1,2014-12-04T08:12:00Z,27.4847,-97.3181,19.5,1111122 
TCOON,ioos:station:TCOON:013:1,2014-12-04T09:12:00Z,27.4847,-97.3181,18.9,1111122 
TCOON,ioos:station:TCOON:013:1,2014-12-04T10:12:00Z,27.4847,-97.3181,18.8,1111122 
TCOON,ioos:station:TCOON:013:1,2014-12-04T11:12:00Z,27.4847,-97.3181,19.0,1111122 
TCOON,ioos:station:TCOON:013:1,2014-12-04T12:12:00Z,27.4847,-97.3181,18.9,1111122 
TCOON,ioos:station:TCOON:013:1,2014-12-04T13:12:00Z,27.4847,-97.3181,18.6,1111122 
TCOON,ioos:station:TCOON:013:1,2014-12-04T14:12:00Z,27.4847,-97.3181,19.2,1111122 
TCOON,ioos:station:TCOON:013:1,2014-12-04T15:12:00Z,27.4847,-97.3181,19.7,1111122 
TCOON,ioos:station:TCOON:013:1,2014-12-04T16:18:00Z,27.4847,-97.3181,22.5,1111122 
TCOON,ioos:station:TCOON:013:1,2014-12-04T17:12:00Z,27.4847,-97.3181,22.7,1111122 
TCOON,ioos:station:TCOON:013:1,2014-12-04T18:12:00Z,27.4847,-97.3181,23.0,1111122 
TCOON,ioos:station:TCOON:013:1,2014-12-04T19:12:00Z,27.4847,-97.3181,22.8,1111122 
TCOON,ioos:station:TCOON:013:1,2014-12-04T20:12:00Z,27.4847,-97.3181,22.3,1111122 
TCOON,ioos:station:TCOON:013:1,2014-12-04T21:12:00Z,27.4847,-97.3181,22.1,1111122 
TCOON,ioos:station:TCOON:013:1,2014-12-04T22:12:00Z,27.4847,-97.3181,22.3,1111122 
TCOON,ioos:station:TCOON:013:1,2014-12-04T23:12:00Z,27.4847,-97.3181,22.0,1111122 
TCOON,ioos:station:TCOON:013:1,2014-12-05T00:12:00Z,27.4847,-97.3181,21.4,1111122 
TCOON,ioos:station:TCOON:013:1,2014-12-05T01:12:00Z,27.4847,-97.3181,21.3,1111122 
TCOON,ioos:station:TCOON:013:1,2014-12-05T02:12:00Z,27.4847,-97.3181,21.0,1111122 
TCOON,ioos:station:TCOON:013:1,2014-12-05T03:12:00Z,27.4847,-97.3181,21.0,1111122 
TCOON,ioos:station:TCOON:013:1,2014-12-05T04:18:00Z,27.4847,-97.3181,20.7,1111122 
TCOON,ioos:station:TCOON:013:1,2014-12-05T05:18:00Z,27.4847,-97.3181,20.8,1111122 
TCOON,ioos:station:TCOON:013:1,2014-12-05T07:00:00Z,27.4847,-97.3181,20.5,1111122 
TCOON,ioos:station:TCOON:013:1,2014-12-05T07:18:00Z,27.4847,-97.3181,20.2,1111122 
TCOON,ioos:station:TCOON:013:1,2014-12-05T08:12:00Z,27.4847,-97.3181,19.8,1111122 
TCOON,ioos:station:TCOON:013:1,2014-12-05T09:12:00Z,27.4847,-97.3181,19.9,1111122 
TCOON,ioos:station:TCOON:013:1,2014-12-05T10:12:00Z,27.4847,-97.3181,19.8,1111122 
TCOON,ioos:station:TCOON:013:1,2014-12-05T11:12:00Z,27.4847,-97.3181,20.2,1111122 
TCOON,ioos:station:TCOON:013:1,2014-12-05T12:12:00Z,27.4847,-97.3181,19.6,1111122 
TCOON,ioos:station:TCOON:013:1,2014-12-05T13:12:00Z,27.4847,-97.3181,19.6,1111122 
TCOON,ioos:station:TCOON:013:1,2014-12-05T14:12:00Z,27.4847,-97.3181,20.5,1111122 
TCOON,ioos:station:TCOON:013:1,2014-12-05T15:12:00Z,27.4847,-97.3181,20.9,1111122 
TCOON,ioos:station:TCOON:013:1,2014-12-05T17:12:00Z,27.4847,-97.3181,23.3,1111122 
TCOON,ioos:station:TCOON:013:1,2014-12-05T18:12:00Z,27.4847,-97.3181,23.4,1111122 
TCOON,ioos:station:TCOON:013:1,2014-12-05T19:12:00Z,27.4847,-97.3181,23.2,1111122 
TCOON,ioos:station:TCOON:013:1,2014-12-05T20:12:00Z,27.4847,-97.3181,23.3,1111122 
TCOON,ioos:station:TCOON:013:1,2014-12-05T21:12:00Z,27.4847,-97.3181,23.3,1111122 
TCOON,ioos:station:TCOON:013:1,2014-12-05T22:12:00Z,27.4847,-97.3181,22.7,1111122 
TCOON,ioos:station:TCOON:013:1,2014-12-05T23:12:00Z,27.4847,-97.3181,22.1,1111122 
TCOON,ioos:station:TCOON:013:1,2014-12-06T00:18:00Z,27.4847,-97.3181,21.4,1111122 
TCOON,ioos:station:TCOON:013:1,2014-12-06T01:18:00Z,27.4847,-97.3181,21.3,1111122 
TCOON,ioos:station:TCOON:013:1,2014-12-06T02:18:00Z,27.4847,-97.3181,21.1,1111122 
TCOON,ioos:station:TCOON:013:1,2014-12-06T03:12:00Z,27.4847,-97.3181,21.1,1111122 
TCOON,ioos:station:TCOON:013:1,2014-12-06T04:12:00Z,27.4847,-97.3181,20.9,1111122 
TCOON,ioos:station:TCOON:013:1,2014-12-06T05:12:00Z,27.4847,-97.3181,20.9,1111122 
TCOON,ioos:station:TCOON:013:1,2014-12-06T07:00:00Z,27.4847,-97.3181,21.0,1111122 
TCOON,ioos:station:TCOON:013:1,2014-12-06T08:12:00Z,27.4847,-97.3181,21.0,1111122 
TCOON,ioos:station:TCOON:013:1,2014-12-06T09:12:00Z,27.4847,-97.3181,20.9,1111122 
TCOON,ioos:station:TCOON:013:1,2014-12-06T10:12:00Z,27.4847,-97.3181,20.6,1111122 
TCOON,ioos:station:TCOON:013:1,2014-12-06T11:12:00Z,27.4847,-97.3181,20.5,1111122 
TCOON,ioos:station:TCOON:013:1,2014-12-06T12:12:00Z,27.4847,-97.3181,20.6,1111122 
TCOON,ioos:station:TCOON:013:1,2014-12-06T13:12:00Z,27.4847,-97.3181,20.7,1111122 
TCOON,ioos:station:TCOON:013:1,2014-12-06T14:12:00Z,27.4847,-97.3181,20.9,1111122 
TCOON,ioos:station:TCOON:013:1,2014-12-06T15:12:00Z,27.4847,-97.3181,21.2,1111122 
TCOON,ioos:station:TCOON:013:1,2014-12-06T16:12:00Z,27.4847,-97.3181,21.7,1111122 
TCOON,ioos:station:TCOON:013:1,2014-12-06T17:12:00Z,27.4847,-97.3181,21.9,1111122 
TCOON,ioos:station:TCOON:013:1,2014-12-06T18:18:00Z,27.4847,-97.3181,21.1,1111122 
TCOON,ioos:station:TCOON:013:1,2014-12-06T19:12:00Z,27.4847,-97.3181,21.5,1111122 
TCOON,ioos:station:TCOON:013:1,2014-12-06T20:12:00Z,27.4847,-97.3181,22.0,1111122 
TCOON,ioos:station:TCOON:013:1,2014-12-06T21:12:00Z,27.4847,-97.3181,22.2,1111122 
TCOON,ioos:station:TCOON:013:1,2014-12-06T22:12:00Z,27.4847,-97.3181,21.6,1111122 
TCOON,ioos:station:TCOON:013:1,2014-12-06T23:12:00Z,27.4847,-97.3181,20.4,1111122 
TCOON,ioos:station:TCOON:013:1,2014-12-07T00:12:00Z,27.4847,-97.3181,19.5,1111122 
TCOON,ioos:station:TCOON:013:1,2014-12-07T01:12:00Z,27.4847,-97.3181,18.9,1111122 
TCOON,ioos:station:TCOON:013:1,2014-12-07T02:12:00Z,27.4847,-97.3181,18.9,1111122 
TCOON,ioos:station:TCOON:013:1,2014-12-07T03:12:00Z,27.4847,-97.3181,18.4,1111122 
TCOON,ioos:station:TCOON:013:1,2014-12-07T04:12:00Z,27.4847,-97.3181,18.0,1111122 
TCOON,ioos:station:TCOON:013:1,2014-12-07T05:12:00Z,27.4847,-97.3181,18.0,1111122 
TCOON,ioos:station:TCOON:013:1,2014-12-07T06:18:00Z,27.4847,-97.3181,17.1,1111122 
TCOON,ioos:station:TCOON:013:1,2014-12-07T07:12:00Z,27.4847,-97.3181,16.9,1111122 
TCOON,ioos:station:TCOON:013:1,2014-12-07T08:12:00Z,27.4847,-97.3181,17.2,1111122 
TCOON,ioos:station:TCOON:013:1,2014-12-07T09:12:00Z,27.4847,-97.3181,17.3,1111122 
TCOON,ioos:station:TCOON:013:1,2014-12-07T10:12:00Z,27.4847,-97.3181,17.4,1111122 
TCOON,ioos:station:TCOON:013:1,2014-12-07T11:12:00Z,27.4847,-97.3181,17.7,1111122 
TCOON,ioos:station:TCOON:013:1,2014-12-07T12:12:00Z,27.4847,-97.3181,17.6,1111122 
TCOON,ioos:station:TCOON:013:1,2014-12-07T13:12:00Z,27.4847,-97.3181,17.7,1111122 
TCOON,ioos:station:TCOON:013:1,2014-12-07T14:12:00Z,27.4847,-97.3181,17.9,1111122 
TCOON,ioos:station:TCOON:013:1,2014-12-07T15:12:00Z,27.4847,-97.3181,17.8,1111122 
TCOON,ioos:station:TCOON:013:1,2014-12-07T16:12:00Z,27.4847,-97.3181,17.7,1111122 
TCOON,ioos:station:TCOON:013:1,2014-12-07T17:12:00Z,27.4847,-97.3181,17.9,1111122 
TCOON,ioos:station:TCOON:013:1,2014-12-07T18:12:00Z,27.4847,-97.3181,17.5,1111122 
TCOON,ioos:station:TCOON:013:1,2014-12-07T19:12:00Z,27.4847,-97.3181,17.4,1111122 
TCOON,ioos:station:TCOON:013:1,2014-12-07T20:12:00Z,27.4847,-97.3181,17.0,1111122 
TCOON,ioos:station:TCOON:013:1,2014-12-07T21:12:00Z,27.4847,-97.3181,17.0,1111122 
TCOON,ioos:station:TCOON:013:1,2014-12-07T22:12:00Z,27.4847,-97.3181,17.0,1111122 
TCOON,ioos:station:TCOON:013:1,2014-12-07T23:12:00Z,27.4847,-97.3181,17.1,1111122 
TCOON,ioos:station:TCOON:013:1,2014-12-08T00:12:00Z,27.4847,-97.3181,16.9,1111122 
TCOON,ioos:station:TCOON:013:1,2014-12-08T01:12:00Z,27.4847,-97.3181,17.0,1111122 
TCOON,ioos:station:TCOON:013:1,2014-12-08T02:12:00Z,27.4847,-97.3181,16.9,1111122 
TCOON,ioos:station:TCOON:013:1,2014-12-08T03:12:00Z,27.4847,-97.3181,17.0,1111122 
TCOON,ioos:station:TCOON:013:1,2014-12-08T04:12:00Z,27.4847,-97.3181,16.8,1111122 
TCOON,ioos:station:TCOON:013:1,2014-12-08T05:12:00Z,27.4847,-97.3181,16.7,1111122 
TCOON,ioos:station:TCOON:013:1,2014-12-08T06:12:00Z,27.4847,-97.3181,16.6,1111122 
TCOON,ioos:station:TCOON:013:1,2014-12-08T07:12:00Z,27.4847,-97.3181,16.7,1111122 
TCOON,ioos:station:TCOON:013:1,2014-12-08T08:12:00Z,27.4847,-97.3181,16.8,1111122 
TCOON,ioos:station:TCOON:013:1,2014-12-08T09:12:00Z,27.4847,-97.3181,16.7,1111122 
TCOON,ioos:station:TCOON:013:1,2014-12-08T10:12:00Z,27.4847,-97.3181,16.5,1111122 
TCOON,ioos:station:TCOON:013:1,2014-12-08T11:12:00Z,27.4847,-97.3181,16.1,1111122 
TCOON,ioos:station:TCOON:013:1,2014-12-08T12:12:00Z,27.4847,-97.3181,15.4,1111122 
TCOON,ioos:station:TCOON:013:1,2014-12-08T13:12:00Z,27.4847,-97.3181,15.5,1111122 
TCOON,ioos:station:TCOON:013:1,2014-12-08T14:12:00Z,27.4847,-97.3181,15.0,1111122 
TCOON,ioos:station:TCOON:013:1,2014-12-08T15:12:00Z,27.4847,-97.3181,15.0,1111122 
TCOON,ioos:station:TCOON:013:1,2014-12-08T16:12:00Z,27.4847,-97.3181,15.2,1111122 
TCOON,ioos:station:TCOON:013:1,2014-12-08T17:12:00Z,27.4847,-97.3181,14.8,1111122 
TCOON,ioos:station:TCOON:013:1,2014-12-08T18:18:00Z,27.4847,-97.3181,15.1,1111122 
TCOON,ioos:station:TCOON:013:1,2014-12-08T19:12:00Z,27.4847,-97.3181,15.1,1111122 
TCOON,ioos:station:TCOON:013:1,2014-12-08T20:12:00Z,27.4847,-97.3181,15.3,1111122 
TCOON,ioos:station:TCOON:013:1,2014-12-08T21:12:00Z,27.4847,-97.3181,15.6,1111122 
TCOON,ioos:station:TCOON:013:1,2014-12-08T22:18:00Z,27.4847,-97.3181,16.2,1111122 
TCOON,ioos:station:TCOON:013:1,2014-12-08T23:18:00Z,27.4847,-97.3181,16.4,1111122 
TCOON,ioos:station:TCOON:013:1,2014-12-09T00:12:00Z,27.4847,-97.3181,16.4,1111122 
TCOON,ioos:station:TCOON:013:1,2014-12-09T01:18:00Z,27.4847,-97.3181,15.7,1111122 
TCOON,ioos:station:TCOON:013:1,2014-12-09T02:12:00Z,27.4847,-97.3181,14.9,1111122 
TCOON,ioos:station:TCOON:013:1,2014-12-09T03:12:00Z,27.4847,-97.3181,14.9,1111122 
TCOON,ioos:station:TCOON:013:1,2014-12-09T04:18:00Z,27.4847,-97.3181,14.5,1111122 
TCOON,ioos:station:TCOON:013:1,2014-12-09T05:12:00Z,27.4847,-97.3181,14.4,1111122 
TCOON,ioos:station:TCOON:013:1,2014-12-09T06:12:00Z,27.4847,-97.3181,14.3,1111122 
TCOON,ioos:station:TCOON:013:1,2014-12-09T14:18:00Z,27.4847,-97.3181,14.2,1111122 
TCOON,ioos:station:TCOON:013:1,2014-12-09T15:12:00Z,27.4847,-97.3181,15.1,1111122 
TCOON,ioos:station:TCOON:013:1,2014-12-09T16:12:00Z,27.4847,-97.3181,15.8,1111122 
TCOON,ioos:station:TCOON:013:1,2014-12-09T17:12:00Z,27.4847,-97.3181,16.2,1111122 
TCOON,ioos:station:TCOON:013:1,2014-12-09T18:12:00Z,27.4847,-97.3181,16.7,1111122 
TCOON,ioos:station:TCOON:013:1,2014-12-09T19:12:00Z,27.4847,-97.3181,17.6,1111122 
TCOON,ioos:station:TCOON:013:1,2014-12-09T20:12:00Z,27.4847,-97.3181,17.7,1111122 
TCOON,ioos:station:TCOON:013:1,2014-12-09T21:12:00Z,27.4847,-97.3181,18.0,1111122 
TCOON,ioos:station:TCOON:013:1,2014-12-09T22:30:00Z,27.4847,-97.3181,17.2,1111122 
TCOON,ioos:station:TCOON:013:1,2014-12-09T23:42:00Z,27.4847,-97.3181,16.7,1111122 
TCOON,ioos:station:TCOON:013:1,2014-12-10T00:12:00Z,27.4847,-97.3181,16.5,1111122 
TCOON,ioos:station:TCOON:013:1,2014-12-10T01:12:00Z,27.4847,-97.3181,16.9,1111122 
TCOON,ioos:station:TCOON:013:1,2014-12-10T02:18:00Z,27.4847,-97.3181,16.7,1111122 
TCOON,ioos:station:TCOON:013:1,2014-12-10T03:12:00Z,27.4847,-97.3181,17.4,1111122 
TCOON,ioos:station:TCOON:013:1,2014-12-10T04:12:00Z,27.4847,-97.3181,17.2,1111122 
TCOON,ioos:station:TCOON:013:1,2014-12-10T05:12:00Z,27.4847,-97.3181,17.6,1111122 
TCOON,ioos:station:TCOON:013:1,2014-12-10T06:18:00Z,27.4847,-97.3181,17.2,1111122 
TCOON,ioos:station:TCOON:013:1,2014-12-10T07:12:00Z,27.4847,-97.3181,17.2,1111122 
TCOON,ioos:station:TCOON:013:1,2014-12-10T08:12:00Z,27.4847,-97.3181,17.2,1111122 
TCOON,ioos:station:TCOON:013:1,2014-12-10T09:12:00Z,27.4847,-97.3181,17.4,1111122 
TCOON,ioos:station:TCOON:013:1,2014-12-10T10:12:00Z,27.4847,-97.3181,17.4,1111122 
TCOON,ioos:station:TCOON:013:1,2014-12-10T11:12:00Z,27.4847,-97.3181,17.3,1111122 
TCOON,ioos:station:TCOON:013:1,2014-12-10T12:12:00Z,27.4847,-97.3181,17.3,1111122 
TCOON,ioos:station:TCOON:013:1,2014-12-10T13:12:00Z,27.4847,-97.3181,17.5,1111122 
TCOON,ioos:station:TCOON:013:1,2014-12-10T15:42:00Z,27.4847,-97.3181,18.6,1111122 
TCOON,ioos:station:TCOON:013:1,2014-12-10T16:12:00Z,27.4847,-97.3181,18.4,1111122 
TCOON,ioos:station:TCOON:013:1,2014-12-10T17:12:00Z,27.4847,-97.3181,20.4,1111122 
TCOON,ioos:station:TCOON:013:1,2014-12-10T18:12:00Z,27.4847,-97.3181,20.9,1111122 
TCOON,ioos:station:TCOON:013:1,2014-12-10T19:12:00Z,27.4847,-97.3181,21.6,1111122 
TCOON,ioos:station:TCOON:013:1,2014-12-10T20:12:00Z,27.4847,-97.3181,21.5,1111122 
TCOON,ioos:station:TCOON:013:1,2014-12-10T21:12:00Z,27.4847,-97.3181,20.9,1111122 
TCOON,ioos:station:TCOON:013:1,2014-12-10T23:00:00Z,27.4847,-97.3181,19.9,1111122 
TCOON,ioos:station:TCOON:013:1,2014-12-11T00:12:00Z,27.4847,-97.3181,19.3,1111122 
TCOON,ioos:station:TCOON:013:1,2014-12-11T01:12:00Z,27.4847,-97.3181,19.0,1111122 
TCOON,ioos:station:TCOON:013:1,2014-12-11T02:12:00Z,27.4847,-97.3181,18.6,1111122 
TCOON,ioos:station:TCOON:013:1,2014-12-11T03:12:00Z,27.4847,-97.3181,18.2,1111122 
TCOON,ioos:station:TCOON:013:1,2014-12-11T04:12:00Z,27.4847,-97.3181,18.2,1111122 
TCOON,ioos:station:TCOON:013:1,2014-12-11T17:12:00Z,27.4847,-97.3181,21.3,1111122 
TCOON,ioos:station:TCOON:013:1,2014-12-11T18:12:00Z,27.4847,-97.3181,21.6,1111122 
TCOON,ioos:station:TCOON:013:1,2014-12-11T19:12:00Z,27.4847,-97.3181,22.0,1111122 
TCOON,ioos:station:TCOON:013:1,2014-12-11T20:12:00Z,27.4847,-97.3181,21.5,1111122 
TCOON,ioos:station:TCOON:013:1,2014-12-11T21:12:00Z,27.4847,-97.3181,21.1,1111122 
TCOON,ioos:station:TCOON:013:1,2014-12-11T22:18:00Z,27.4847,-97.3181,20.8,1111122 
TCOON,ioos:station:TCOON:013:1,2014-12-11T23:12:00Z,27.4847,-97.3181,20.2,1111122 
TCOON,ioos:station:TCOON:013:1,2014-12-12T00:12:00Z,27.4847,-97.3181,20.1,1111122 
TCOON,ioos:station:TCOON:013:1,2014-12-12T01:12:00Z,27.4847,-97.3181,20.1,1111122 
TCOON,ioos:station:TCOON:013:1,2014-12-12T02:12:00Z,27.4847,-97.3181,19.9,1111122 
TCOON,ioos:station:TCOON:013:1,2014-12-12T03:12:00Z,27.4847,-97.3181,19.9,1111122 
TCOON,ioos:station:TCOON:013:1,2014-12-12T14:18:00Z,27.4847,-97.3181,19.5,1111122 
TCOON,ioos:station:TCOON:013:1,2014-12-12T15:12:00Z,27.4847,-97.3181,20.9,1111122 
TCOON,ioos:station:TCOON:013:1,2014-12-12T16:12:00Z,27.4847,-97.3181,21.3,1111122 
TCOON,ioos:station:TCOON:013:1,2014-12-12T17:18:00Z,27.4847,-97.3181,21.8,1111122 
TCOON,ioos:station:TCOON:013:1,2014-12-12T18:42:00Z,27.4847,-97.3181,21.7,1111122 
TCOON,ioos:station:TCOON:013:1,2014-12-12T19:36:00Z,27.4847,-97.3181,21.8,1111122 
TCOON,ioos:station:TCOON:013:1,2014-12-12T20:36:00Z,27.4847,-97.3181,21.8,1111122 
TCOON,ioos:station:TCOON:013:1,2014-12-12T21:18:00Z,27.4847,-97.3181,21.8,1111122 
TCOON,ioos:station:TCOON:013:1,2014-12-12T22:12:00Z,27.4847,-97.3181,21.6,1111122 
TCOON,ioos:station:TCOON:013:1,2014-12-12T23:12:00Z,27.4847,-97.3181,20.6,1111122 
TCOON,ioos:station:TCOON:013:1,2014-12-13T00:12:00Z,27.4847,-97.3181,19.8,1111122 
TCOON,ioos:station:TCOON:013:1,2014-12-13T01:12:00Z,27.4847,-97.3181,19.6,1111122 
TCOON,ioos:station:TCOON:013:1,2014-12-13T02:18:00Z,27.4847,-97.3181,19.5,1111122 
TCOON,ioos:station:TCOON:013:1,2014-12-13T03:12:00Z,27.4847,-97.3181,19.3,1111122 
TCOON,ioos:station:TCOON:013:1,2014-12-13T04:12:00Z,27.4847,-97.3181,19.3,1111122 
TCOON,ioos:station:TCOON:013:1,2014-12-13T05:12:00Z,27.4847,-97.3181,19.3,1111122 
TCOON,ioos:station:TCOON:013:1,2014-12-13T07:00:00Z,27.4847,-97.3181,18.4,1111122 
TCOON,ioos:station:TCOON:013:1,2014-12-13T07:12:00Z,27.4847,-97.3181,18.4,1111122 
TCOON,ioos:station:TCOON:013:1,2014-12-13T08:12:00Z,27.4847,-97.3181,18.2,1111122 
TCOON,ioos:station:TCOON:013:1,2014-12-13T09:12:00Z,27.4847,-97.3181,18.4,1111122 
TCOON,ioos:station:TCOON:013:1,2014-12-13T13:48:00Z,27.4847,-97.3181,18.5,1111122 
TCOON,ioos:station:TCOON:013:1,2014-12-13T14:12:00Z,27.4847,-97.3181,19.2,1111122 
TCOON,ioos:station:TCOON:013:1,2014-12-13T15:12:00Z,27.4847,-97.3181,20.5,1111122 
TCOON,ioos:station:TCOON:013:1,2014-12-13T16:12:00Z,27.4847,-97.3181,21.6,1111122 
TCOON,ioos:station:TCOON:013:1,2014-12-13T17:12:00Z,27.4847,-97.3181,22.0,1111122 
TCOON,ioos:station:TCOON:013:1,2014-12-13T18:24:00Z,27.4847,-97.3181,22.1,1111122 
TCOON,ioos:station:TCOON:013:1,2014-12-13T19:12:00Z,27.4847,-97.3181,22.1,1111122 
TCOON,ioos:station:TCOON:013:1,2014-12-13T20:12:00Z,27.4847,-97.3181,22.1,1111122 
TCOON,ioos:station:TCOON:013:1,2014-12-13T21:12:00Z,27.4847,-97.3181,22.1,1111122 
TCOON,ioos:station:TCOON:013:1,2014-12-13T22:12:00Z,27.4847,-97.3181,21.7,1111122 
TCOON,ioos:station:TCOON:013:1,2014-12-13T23:12:00Z,27.4847,-97.3181,20.8,1111122 
TCOON,ioos:station:TCOON:013:1,2014-12-14T00:12:00Z,27.4847,-97.3181,19.8,1111122 
TCOON,ioos:station:TCOON:013:1,2014-12-14T01:12:00Z,27.4847,-97.3181,19.5,1111122 
TCOON,ioos:station:TCOON:013:1,2014-12-14T02:12:00Z,27.4847,-97.3181,19.4,1111122 
TCOON,ioos:station:TCOON:013:1,2014-12-14T03:18:00Z,27.4847,-97.3181,19.2,1111122 
TCOON,ioos:station:TCOON:013:1,2014-12-14T04:18:00Z,27.4847,-97.3181,19.3,1111122 
TCOON,ioos:station:TCOON:013:1,2014-12-14T05:12:00Z,27.4847,-97.3181,19.2,1111122 
TCOON,ioos:station:TCOON:013:1,2014-12-14T06:48:00Z,27.4847,-97.3181,20.0,1111122 
TCOON,ioos:station:TCOON:013:1,2014-12-14T07:12:00Z,27.4847,-97.3181,20.2,1111122 
TCOON,ioos:station:TCOON:013:1,2014-12-14T08:12:00Z,27.4847,-97.3181,20.0,1111122 
TCOON,ioos:station:TCOON:013:1,2014-12-14T09:12:00Z,27.4847,-97.3181,19.9,1111122 
TCOON,ioos:station:TCOON:013:1,2014-12-14T10:12:00Z,27.4847,-97.3181,19.7,1111122 
TCOON,ioos:station:TCOON:013:1,2014-12-14T11:12:00Z,27.4847,-97.3181,19.7,1111122 
TCOON,ioos:station:TCOON:013:1,2014-12-14T12:12:00Z,27.4847,-97.3181,19.6,1111122 
TCOON,ioos:station:TCOON:013:1,2014-12-14T13:42:00Z,27.4847,-97.3181,20.0,1111122 
TCOON,ioos:station:TCOON:013:1,2014-12-14T14:18:00Z,27.4847,-97.3181,20.4,1111122 
TCOON,ioos:station:TCOON:013:1,2014-12-14T15:12:00Z,27.4847,-97.3181,21.0,1111122 
TCOON,ioos:station:TCOON:013:1,2014-12-14T16:12:00Z,27.4847,-97.3181,21.8,1111122 
TCOON,ioos:station:TCOON:013:1,2014-12-14T17:12:00Z,27.4847,-97.3181,22.3,1111122 